AUA34AK EGLL-LOWW

Flight info

Callsign AUA34AK
Flight time N/A
Altitude 37000
Route DET L6 DVR UL9 KONAN DCT KOK UL607 FERDI DCT MATUG DCT GUBAX DCT BARSU DCT EKSOS DCT LULAR DCT RUDAP DCT BUDEX BUDEX2W
Aircraft A320/M-SDE3FGHIRWY/LB1

Departure

Time N/A
Airport London Heathrow Airport (EGLL)

Arrival

Time 2026-05-06 14:11
Airport Vienna International Airport (LOWW)
Time Latitude Longitude Altitude Speed Heading
2026-05-06 13:44 49.13105 13.67414 36774 ft 461 kts 118°
2026-05-06 13:45 49.10652 13.76441 36784 ft 461 kts 118°
2026-05-06 13:45 49.06944 13.89957 36747 ft 461 kts 118°
2026-05-06 13:46 49.04459 13.98969 36764 ft 461 kts 118°
2026-05-06 13:46 49.01968 14.07978 36771 ft 461 kts 118°
2026-05-06 13:47 48.99459 14.16996 35920 ft 469 kts 119°
2026-05-06 13:47 48.98175 14.21596 34984 ft 473 kts 120°
2026-05-06 13:47 48.96890 14.26211 34135 ft 475 kts 120°
2026-05-06 13:48 48.95574 14.30847 33106 ft 478 kts 123°
2026-05-06 13:48 48.93948 14.35218 32149 ft 471 kts 131°
2026-05-06 13:48 48.92033 14.39145 31718 ft 457 kts 135°
2026-05-06 13:48 48.90111 14.42962 31114 ft 452 kts 135°
2026-05-06 13:49 48.88212 14.46733 30544 ft 447 kts 135°
2026-05-06 13:49 48.86333 14.50468 29973 ft 443 kts 135°
2026-05-06 13:49 48.84472 14.54162 29348 ft 438 kts 134°
2026-05-06 13:49 48.82631 14.57807 28771 ft 432 kts 134°
2026-05-06 13:50 48.80816 14.61394 28259 ft 426 kts 135°
2026-05-06 13:50 48.79016 14.64931 27717 ft 421 kts 135°
2026-05-06 13:50 48.77234 14.68422 27185 ft 416 kts 135°
2026-05-06 13:50 48.75470 14.71870 26657 ft 412 kts 135°
2026-05-06 13:51 48.73720 14.75287 26129 ft 409 kts 135°
2026-05-06 13:51 48.71982 14.78683 25596 ft 407 kts 134°
2026-05-06 13:51 48.70254 14.82057 25087 ft 404 kts 134°
2026-05-06 13:51 48.68534 14.85408 24574 ft 401 kts 134°
2026-05-06 13:52 48.66828 14.88729 24085 ft 398 kts 134°
2026-05-06 13:52 48.65705 14.90916 23762 ft 397 kts 134°
2026-05-06 13:52 48.63994 14.94242 23213 ft 394 kts 134°
2026-05-06 13:52 48.62335 14.97460 22657 ft 392 kts 134°
2026-05-06 13:53 48.60641 15.00749 22082 ft 391 kts 133°
2026-05-06 13:53 48.59207 15.04200 21570 ft 397 kts 121°
2026-05-06 13:53 48.58216 15.08141 21291 ft 398 kts 110°
2026-05-06 13:53 48.57537 15.12165 20899 ft 393 kts 110°
2026-05-06 13:54 48.56857 15.16155 20401 ft 392 kts 110°
2026-05-06 13:54 48.56178 15.20068 19906 ft 390 kts 110°
2026-05-06 13:54 48.55489 15.24017 19394 ft 389 kts 110°
2026-05-06 13:54 48.54801 15.27955 18881 ft 388 kts 110°
2026-05-06 13:55 48.54114 15.31888 18347 ft 387 kts 109°
2026-05-06 13:55 48.53429 15.35810 17817 ft 386 kts 109°
2026-05-06 13:55 48.52745 15.39715 17290 ft 384 kts 109°
2026-05-06 13:55 48.52097 15.43614 16784 ft 383 kts 104°
2026-05-06 13:56 48.51807 15.47617 16304 ft 383 kts 98°
2026-05-06 13:56 48.51596 15.51610 15821 ft 381 kts 98°
2026-05-06 13:56 48.51377 15.55579 15350 ft 379 kts 98°
2026-05-06 13:56 48.51153 15.59524 14873 ft 376 kts 98°
2026-05-06 13:57 48.50927 15.63443 14404 ft 374 kts 98°
2026-05-06 13:57 48.50701 15.67342 13938 ft 372 kts 98°
2026-05-06 13:57 48.50476 15.71212 13463 ft 370 kts 98°
2026-05-06 13:57 48.50251 15.75055 12955 ft 366 kts 98°
2026-05-06 13:58 48.50027 15.78864 12517 ft 362 kts 98°
2026-05-06 13:58 48.49807 15.82623 12062 ft 358 kts 98°
2026-05-06 13:58 48.49588 15.86340 11616 ft 354 kts 98°
2026-05-06 13:58 48.49367 15.90021 11175 ft 351 kts 98°
2026-05-06 13:59 48.49146 15.93669 10737 ft 348 kts 98°
2026-05-06 13:59 48.48928 15.97278 10306 ft 344 kts 98°
2026-05-06 13:59 48.48711 16.00832 10055 ft 335 kts 98°
2026-05-06 13:59 48.48501 16.04261 9932 ft 322 kts 98°
2026-05-06 14:00 48.48300 16.07561 9801 ft 311 kts 99°
2026-05-06 14:00 48.47889 16.10682 9669 ft 299 kts 111°
2026-05-06 14:00 48.47097 16.13561 9243 ft 296 kts 118°
2026-05-06 14:00 48.46260 16.16369 8862 ft 293 kts 118°
2026-05-06 14:01 48.45422 16.19178 8458 ft 291 kts 118°
2026-05-06 14:01 48.44600 16.21946 8095 ft 288 kts 119°
2026-05-06 14:01 48.43787 16.24687 7736 ft 286 kts 119°
2026-05-06 14:01 48.42980 16.27406 7373 ft 283 kts 118°
2026-05-06 14:02 48.42184 16.30096 6952 ft 278 kts 118°
2026-05-06 14:02 48.41397 16.32749 6347 ft 274 kts 118°
2026-05-06 14:02 48.40648 16.35278 6116 ft 254 kts 119°
2026-05-06 14:02 48.39967 16.37576 5984 ft 233 kts 120°
2026-05-06 14:03 48.39320 16.39751 5886 ft 225 kts 119°
2026-05-06 14:03 48.38677 16.41889 5790 ft 221 kts 120°
2026-05-06 14:03 48.38059 16.43950 5679 ft 209 kts 120°
2026-05-06 14:03 48.37425 16.45841 5619 ft 195 kts 131°
2026-05-06 14:04 48.36500 16.47178 5519 ft 178 kts 152°
2026-05-06 14:04 48.35388 16.47880 5274 ft 171 kts 168°
2026-05-06 14:04 48.34253 16.48348 5044 ft 167 kts 167°
2026-05-06 14:04 48.33146 16.48818 4821 ft 164 kts 168°
2026-05-06 14:05 48.32060 16.49280 4597 ft 160 kts 167°
2026-05-06 14:05 48.31000 16.49732 4400 ft 157 kts 167°
2026-05-06 14:05 48.29963 16.50174 4193 ft 154 kts 167°
2026-05-06 14:05 48.28939 16.50610 3994 ft 152 kts 167°
2026-05-06 14:06 48.27932 16.51039 3772 ft 149 kts 169°
2026-05-06 14:06 48.26943 16.51461 3576 ft 146 kts 169°
2026-05-06 14:06 48.25968 16.51876 3390 ft 145 kts 169°
2026-05-06 14:06 48.24996 16.52289 3202 ft 146 kts 168°
2026-05-06 14:07 48.24014 16.52707 3007 ft 147 kts 167°
2026-05-06 14:07 48.23035 16.53123 2813 ft 147 kts 168°
2026-05-06 14:07 48.22068 16.53535 2620 ft 140 kts 168°
2026-05-06 14:07 48.21144 16.53928 2442 ft 137 kts 168°
2026-05-06 14:08 48.20233 16.54315 2271 ft 136 kts 168°
2026-05-06 14:08 48.19329 16.54699 2094 ft 135 kts 168°
2026-05-06 14:08 48.18429 16.55084 1910 ft 134 kts 169°
2026-05-06 14:08 48.17531 16.55456 1715 ft 134 kts 168°
2026-05-06 14:09 48.16636 16.55846 1552 ft 133 kts 168°
2026-05-06 14:09 48.15738 16.56223 1382 ft 137 kts 168°
2026-05-06 14:09 48.14823 16.56617 1211 ft 136 kts 166°
2026-05-06 14:09 48.13922 16.57012 1021 ft 133 kts 165°
2026-05-06 14:10 48.13027 16.57395 842 ft 133 kts 165°
2026-05-06 14:10 48.12138 16.57759 683 ft 132 kts 165°
2026-05-06 14:10 48.11287 16.58109 610 ft 112 kts 164°
2026-05-06 14:10 48.10728 16.58346 615 ft 60 kts 164°
2026-05-06 14:11 48.10454 16.58457 614 ft 32 kts 169°
2026-05-06 14:11 48.10258 16.58447 607 ft 25 kts 192°
2026-05-06 14:11 48.10128 16.58385 608 ft 15 kts 219°
2026-05-06 14:11 48.10092 16.58232 619 ft 17 kts 282°
2026-05-06 14:12 48.10182 16.58159 617 ft 15 kts 344°
2026-05-06 14:12 48.10275 16.58119 611 ft 13 kts 344°
2026-05-06 14:12 48.10372 16.58078 615 ft 17 kts 344°
2026-05-06 14:12 48.10493 16.58027 613 ft 19 kts 344°
2026-05-06 14:13 48.10616 16.57974 616 ft 18 kts 344°
2026-05-06 14:13 48.10730 16.57926 614 ft 16 kts 345°
2026-05-06 14:13 48.10834 16.57883 615 ft 15 kts 344°
2026-05-06 14:13 48.10937 16.57840 620 ft 17 kts 344°
2026-05-06 14:14 48.11061 16.57787 617 ft 20 kts 344°
2026-05-06 14:14 48.11190 16.57731 612 ft 18 kts 345°
2026-05-06 14:14 48.11306 16.57683 609 ft 17 kts 344°
2026-05-06 14:14 48.11411 16.57639 615 ft 15 kts 344°
2026-05-06 14:15 48.11507 16.57598 620 ft 14 kts 344°
2026-05-06 14:15 48.11538 16.57505 617 ft 11 kts 235°
2026-05-06 14:15 48.11461 16.57438 609 ft 14 kts 206°
2026-05-06 14:15 48.11446 16.57325 612 ft 13 kts 296°
2026-05-06 14:16 48.11483 16.57213 617 ft 11 kts 296°
2026-05-06 14:16 48.11526 16.57080 612 ft 17 kts 296°
2026-05-06 14:16 48.11578 16.56922 616 ft 16 kts 296°
2026-05-06 14:16 48.11623 16.56782 612 ft 15 kts 295°
2026-05-06 14:17 48.11667 16.56647 616 ft 14 kts 296°
2026-05-06 14:17 48.11695 16.56554 618 ft 3 kts 272°
2026-05-06 14:17 48.11676 16.56537 614 ft 6 kts 206°
2026-05-06 14:17 48.11635 16.56508 609 ft 4 kts 206°
2026-05-06 14:18 48.11631 16.56505 609 ft 0 kts 206°